Location: Burtsch�tz
(51.0528°N, 12.1764°E)
Time: 07:45:05
(UTC+00:00)

NOSS 3-4 (A) - Pass Details

Date: 29 October 2020
Orbit: 882 x 1330 km, 63.4° (Epoch: 28 November)

Event Time Altitude Azimuth Distance (km) Brightness Sun altitude
Rises 17:52:33 0° 314° (NW) 3,752 7.3 -19.7°
Reaches altitude 10° 17:55:03 10° 316° (NW) 2,857 6.6 -20.1°
Maximum altitude 18:01:53 76° 43° (NE) 1,167 3.7 -21.2°
Enters shadow 18:05:39 32° 124° (ESE) 1,896 4.5 -21.8°
